DW0929 Weather Reports


time (UTC)temp
F
wind
direction
speed
knots
gust
knots
rain 1hr
in
rain 24hr
in
rain mn
in
humidity
%
barometer
mb
20260504175047 71 0.0 0.0 0.00 0.00 0.00 31 1007.5
20260504174546 71 0.0 0.0 0.00 0.00 0.00 34 1007.6
20260504174045 70 0.0 0.0 0.00 0.00 0.00 34 1007.6
20260504173544 70 0.0 0.0 0.00 0.00 0.00 33 1007.7
20260504173044 70 0.0 0.0 0.00 0.00 0.00 32 1007.8
20260504172543 70 0.0 0.0 0.00 0.00 0.00 28 1007.8
20260504172044 70 0.0 0.0 0.00 0.00 0.00 30 1007.9
20260504171542 70 0.0 0.0 0.00 0.00 0.00 31 1007.9
20260504171142 69 0.0 0.0 0.00 0.00 0.00 37 1007.9
20260504151124 66 0.0 0.0 0.00 0.00 0.00 39 1009.4
20260504141117 63 0.0 0.0 0.00 0.00 0.00 42 1010.1
20260504081525 40 0.0 0.0 0.00 0.00 0.00 67 1010.3
20260504081025 40 0.0 0.0 0.00 0.00 0.00 67 1010.2
20260504080129 41 0.0 0.0 0.00 0.00 0.00 66 1010.2
20260504045559 37 0.0 0.0 0.00 0.00 0.00 66 1010.6
20260504045059 37 0.0 0.0 0.00 0.00 0.00 66 1010.5
20260504044604 37 0.0 0.0 0.00 0.00 0.00 66 1010.6
20260504044058 37 0.0 0.0 0.00 0.00 0.00 67 1010.6
20260504043557 37 0.0 0.0 0.00 0.00 0.00 66 1010.6
20260504043101 37 0.0 0.0 0.00 0.00 0.00 65 1010.6
20260504042557 37 0.0 0.0 0.00 0.00 0.00 64 1010.6
20260504042100 37 0.0 0.0 0.00 0.00 0.00 63 1010.5
20260504041555 37 0.0 0.0 0.00 0.00 0.00 62 1010.6
20260504041055 37 0.0 0.0 0.00 0.00 0.00 62 1010.6
20260504040104 38 0.0 0.0 0.00 0.00 0.00 60 1010.5
20260504035553 38 0.0 0.0 0.00 0.00 0.00 59 1010.4
20260504035053 38 0.0 0.0 0.00 0.00 0.00 59 1010.4
20260504034559 38 0.0 0.0 0.00 0.00 0.00 59 1010.4
20260504034052 38 0.0 0.0 0.00 0.00 0.00 59 1010.3
20260504033552 39 0.0 0.0 0.00 0.00 0.00 59 1010.3
20260504033125 39 0.0 0.0 0.00 0.00 0.00 59 1010.3
20260504032552 39 0.0 0.0 0.00 0.00 0.00 59 1010.2
20260504032054 39 0.0 0.0 0.00 0.00 0.00 59 1010.3
20260504031557 40 0.0 0.0 0.00 0.00 0.00 60 1010.2
20260504031052 40 0.0 0.0 0.00 0.00 0.00 58 1010.2
20260504030059 40 0.0 0.0 0.00 0.00 0.00 56 1010.0
20260504025554 41 0.0 0.0 0.00 0.00 0.00 56 1010.2
20260504025055 41 0.0 0.0 0.00 0.00 0.00 56 1010.1
20260504024555 41 0.0 0.0 0.00 0.00 0.00 54 1010.1
20260504024057 41 0.0 0.0 0.00 0.00 0.00 54 1010.2
20260504023554 41 0.0 0.0 0.00 0.00 0.00 54 1010.1
20260504023102 41 0.0 0.0 0.00 0.00 0.00 53 1010.1
20260504022555 42 0.0 0.0 0.00 0.00 0.00 52 1010.1
20260504022053 42 0.0 0.0 0.00 0.00 0.00 52 1010.0
20260504021554 42 0.0 0.0 0.00 0.00 0.00 52 1010.0
20260504021053 42 0.0 0.0 0.00 0.00 0.00 52 1009.9
20260504020058 43 0.0 0.0 0.00 0.00 0.00 52 1009.9
20260504015553 43 0.0 0.0 0.00 0.00 0.00 52 1009.8
20260504015054 43 0.0 0.0 0.00 0.00 0.00 51 1009.8
20260504014553 43 0.0 0.0 0.00 0.00 0.00 51 1009.7
20260504014052 44 0.0 0.0 0.00 0.00 0.00 49 1009.7
20260504013552 44 0.0 0.0 0.00 0.00 0.00 49 1009.7
20260504013106 44 0.0 0.0 0.00 0.00 0.00 49 1009.6
20260504012552 45 0.0 0.0 0.00 0.00 0.00 48 1009.6
20260504012052 45 0.0 0.0 0.00 0.00 0.00 47 1009.6
20260504011552 45 0.0 0.0 0.00 0.00 0.00 46 1009.5
20260504011052 46 0.0 0.0 0.00 0.00 0.00 45 1009.4
20260504010105 47 0.0 0.0 0.00 0.00 0.00 43 1009.2
20260504005556 47 0.0 0.0 0.00 0.00 0.00 42 1009.1
20260504005052 47 0.0 0.0 0.00 0.00 0.00 41 1009.0
20260504004610 48 0.0 0.0 0.00 0.00 0.00 41 1008.9
20260504004052 48 0.0 0.0 0.00 0.00 0.00 40 1008.8
20260504003554 49 0.0 0.0 0.00 0.00 0.00 39 1008.8
20260504003051 49 0.0 0.0 0.00 0.00 0.00 38 1008.8
20260504002550 49 0.0 0.0 0.00 0.00 0.00 38 1008.7
20260504002051 50 0.0 0.0 0.00 0.00 0.00 37 1008.6
20260504001554 50 0.0 0.0 0.00 0.00 0.00 37 1008.5
20260504001051 51 0.0 0.0 0.00 0.00 0.00 36 1008.4
20260504000052 51 0.0 0.0 0.00 0.00 0.00 35 1008.3
20260503235551 52 0.0 0.0 0.00 0.00 0.00 35 1008.3
20260503235052 52 0.0 0.0 0.00 0.00 0.00 34 1008.3
20260503234552 52 0.0 0.0 0.00 0.00 0.00 34 1008.2
20260503234051 52 0.0 0.0 0.00 0.00 0.00 34 1008.1
20260503233552 53 0.0 0.0 0.00 0.00 0.00 33 1008.1
20260503233051 53 0.0 0.0 0.00 0.00 0.00 33 1008.0
20260503232551 53 0.0 0.0 0.00 0.00 0.00 32 1008.0
20260503232051 53 0.0 0.0 0.00 0.00 0.00 32 1008.0
20260503231551 53 0.0 0.0 0.00 0.00 0.00 32 1008.0
20260503231050 54 0.0 0.0 0.00 0.00 0.00 31 1007.9
20260503230059 54 0.0 0.0 0.00 0.00 0.00 31 1008.0
20260503225551 54 0.0 0.0 0.00 0.00 0.00 31 1008.0
20260503225051 54 0.0 0.0 0.00 0.00 0.00 31 1007.9
20260503224552 54 0.0 0.0 0.00 0.00 0.00 31 1007.9
20260503224052 55 0.0 0.0 0.00 0.00 0.00 30 1007.9
20260503223552 55 0.0 0.0 0.00 0.00 0.00 31 1007.9
20260503223057 55 0.0 0.0 0.00 0.00 0.00 30 1007.9
20260503222549 55 0.0 0.0 0.00 0.00 0.00 31 1007.9
20260503222050 55 0.0 0.0 0.00 0.00 0.00 31 1007.9
20260503221553 55 0.0 0.0 0.00 0.00 0.00 32 1007.9
20260503221049 55 0.0 0.0 0.00 0.00 0.00 32 1007.9
20260503220052 55 0.0 0.0 0.00 0.00 0.00 32 1007.9
20260503215552 54 0.0 0.0 0.00 0.00 0.00 35 1007.9
20260503215051 54 0.0 0.0 0.00 0.00 0.00 34 1007.9
20260503214552 54 0.0 0.0 0.00 0.00 0.00 35 1008.0
20260503214053 54 0.0 0.0 0.00 0.00 0.00 36 1008.0
20260503213551 54 0.0 0.0 0.00 0.00 0.00 35 1007.9
20260503213104 54 0.0 0.0 0.00 0.00 0.00 35 1007.9
20260503212552 54 0.0 0.0 0.00 0.00 0.00 34 1007.9
20260503212050 54 0.0 0.0 0.00 0.00 0.00 35 1007.9
20260503211551 54 0.0 0.0 0.00 0.00 0.00 35 1008.0
20260503211050 54 0.0 0.0 0.00 0.00 0.00 38 1007.9
20260503210056 54 0.0 0.0 0.00 0.00 0.00 37 1007.8
20260503205548 54 0.0 0.0 0.00 0.00 0.00 36 1007.7
20260503205046 54 0.0 0.0 0.00 0.00 0.00 36 1007.7
20260503204552 54 0.0 0.0 0.00 0.00 0.00 35 1007.6
20260503204046 54 0.0 0.0 0.00 0.00 0.00 36 1007.5
20260503203546 54 0.0 0.0 0.00 0.00 0.00 36 1007.6
20260503203045 54 0.0 0.0 0.00 0.00 0.00 36 1007.6
20260503202545 54 0.0 0.0 0.00 0.00 0.00 37 1007.6
20260503202046 54 0.0 0.0 0.00 0.00 0.00 34 1007.5
20260503201546 54 0.0 0.0 0.00 0.00 0.00 35 1007.6
20260503201045 54 0.0 0.0 0.00 0.00 0.00 37 1007.4
20260503200051 53 0.0 0.0 0.00 0.00 0.00 37 1007.3
20260503195545 53 0.0 0.0 0.00 0.00 0.00 36 1007.5
20260503195045 54 0.0 0.0 0.00 0.00 0.00 34 1007.4
20260503194547 54 0.0 0.0 0.00 0.00 0.00 34 1007.5
20260503194045 54 0.0 0.0 0.00 0.00 0.00 37 1007.4
20260503193545 54 0.0 0.0 0.00 0.00 0.00 37 1007.4
20260503193052 54 0.0 0.0 0.00 0.00 0.00 38 1007.5
20260503192545 54 0.0 0.0 0.00 0.00 0.00 38 1007.5
20260503192044 54 0.0 0.0 0.00 0.00 0.00 35 1007.4
20260503191545 54 0.0 0.0 0.00 0.00 0.00 37 1007.5
20260503191046 54 0.0 0.0 0.00 0.00 0.00 37 1007.6
20260503190045 55 0.0 0.0 0.00 0.00 0.00 37 1007.6
20260503185549 55 0.0 0.0 0.00 0.00 0.00 35 1007.6
20260503185046 55 0.0 0.0 0.00 0.00 0.00 35 1007.7
20260503184555 55 0.0 0.0 0.00 0.00 0.00 35 1007.5
20260503184049 56 0.0 0.0 0.00 0.00 0.00 36 1007.5
20260503183547 56 0.0 0.0 0.00 0.00 0.00 35 1007.6
20260503183100 56 0.0 0.0 0.00 0.00 0.00 37 1007.6
20260503182544 56 0.0 0.0 0.00 0.00 0.00 42 1007.5
20260503182043 55 0.0 0.0 0.00 0.00 0.00 42 1007.4
20260503181544 55 0.0 0.0 0.00 0.00 0.00 37 1007.5
20260503181043 55 0.0 0.0 0.00 0.00 0.00 37 1007.4
20260503180046 55 0.0 0.0 0.00 0.00 0.00 38 1007.4
20260503175542 55 0.0 0.0 0.00 0.00 0.00 40 1007.5